shoulder
new_line
new_line
first
second
third
Al di la della Luna; Beyond the Moon; Astrophotography; Astrofotografia; Danilo Pivato
 
 
         
         
2018
Orbital Elements
Epoch 2018 Dec. 28.0 TT = JDT 2458480.5
T 2018 Dec. 12.94146 TT
q   1.0553673            (2000.0)                       P                        Q
n   0.18118380     Peri.   356.35388     +0.19786389     -0.95925831
a   3.0930705       Node    82.15692     +0.90441435     +0.09931452
e   0.6587962       Incl.      11.74643     +0.37800074     +0.26449976
P   5.44
Return in the future: 2024
 
         
         
       
SetUp
       
     
2018.12.08
2018.12.08 color
2018.12.10 color
2018.12.10
2018.12.15
         
 
2018.12.26
2019.12.26
2019.12.29
2019.01.02
 
         
         
         
         
         
2008

Orbital Elements

Epoch 2008 Jan. 15.0 TT = JDT 2454480.5
T 2008 Feb. 2.49577 TT                                                             MPC
q   1.0574872                 (2000.0)                      P                      Q
n   0.18116891     Peri.  356.34763       +0.19766327     -0.95932337
a   3.0932399      Node    82.17486       +0.90445704     +0.09918948
e   0.6581296      Incl.      11.73926       +0.37800357    +0.26431064
P   5.44
Return in the future: 2013
         
         
2008.02.06
2008.02.08
         
         
         
         
         
         
         
         
         
         
         

 

       
 
Since: 01/01/2004
 
       
 
Since: 01/11/2010